AirNav   ATP
 
 756 users online  

80OI Brentwood Ambulatory Care Center Heliport
Northfield, Ohio, USA

GOING TO NORTHFIELD?


FAA INFORMATION EFFECTIVE 09 NOVEMBER 2017

Location

FAA Identifier: 80OI
Lat/Long: 41-18-58.6700N / 081-34-07.8800W
41-18.977833N / 081-34.131333W
41.3162972 / -81.5688556
(estimated)
Elevation: 868 ft. / 265 m (estimated)
Variation: 06W (1985)
From city: 2 miles E of NORTHFIELD, OH
Time zone: UTC -5 (UTC -4 during Daylight Saving Time)
Zip code: 44067

Heliport Operations

Heliport use: Private use, MEDICAL USE.
Activation date: 07/1987
Control tower: no
ARTCC: CLEVELAND CENTER
FSS: CLEVELAND FLIGHT SERVICE STATION
Attendance: CONTINUOUS
Wind indicator: yes
Segmented circle: yes

Heliport Communications

WX ASOS at BKL (13 nm NW): 125.25 (216-241-6904)
WX ASOS at CLE (14 nm NW): PHONE 216-267-9955
WX AWOS-3 at POV (16 nm SE): 118.675 (330-298-9353)
WX ASOS at AKR (17 nm S): 126.825 (330-724-4237)

Nearby radio navigation aids

VOR radial/distance  VOR name  Freq  Var
ACOr311/20.8AKRON VOR/DME114.4004W
CXRr242/21.9CHARDON VOR/DME112.7005W
DJBr100/26.8DRYER VOR/DME113.6005W
BSVr354/35.1BRIGGS VOR/DME112.4004W

 
NDB name  Hdg/Dist  Freq  Var  ID
LAKELAND209/23.626308WLQL .-.. --.- .-..

Heliport Services

Runway Information

Helipad H1

Dimensions: 60 x 60 ft. / 18 x 18 m
Surface: asphalt
Latitude: 41-18.977833N
Longitude: 081-34.131333W
Elevation: 868.0 ft.
Traffic pattern: leftleft

Heliport Ownership and Management from official FAA records

Ownership: Privately-owned
Owner: BRENTWOOD HOSPITAL
4110 WARRENSVILLE CENTER RD
WARRENSVILLE HTS, OH 44122
Phone 216-283-2900
Manager: FRANK KELEMAN
4110 WARRENSVILLE CENTER RD
WARRENSVILLE HTS, OH 44122
Phone 216-283-2900

Additional Remarks

A52-H1 +80' HI TENSION TWRS 1000' E.

Instrument Procedures

There are no published instrument procedures at 80OI.

Some nearby airports with instrument procedures:

1G3 - Kent State University Airport (12 nm SE)
KBKL - Burke Lakefront Airport (13 nm NW)
KCLE - Cleveland-Hopkins International Airport (14 nm NW)
1G5 - Medina Municipal Airport (14 nm SW)
KCGF - Cuyahoga County Airport (15 nm N)
KPOV - Portage County Airport (16 nm SE)
KAKR - Akron Fulton International Airport (17 nm S)
 
Loc | Ops | Rwys | IFR | FBO | Links
Com | Nav | Svcs | Stats | Notes


 
Area around 80OI (Brentwood Ambulatory Care Center Heliport)
 
Road maps at: MapQuest Bing Google
 
Aerial photo
No photo
 
Sectional chart

 
Airport distance calculator
Flying to Brentwood Ambulatory Care Center Heliport? Find the distance to fly.

From to 80OI

Sunrise and sunset
Times for 22-Nov-2017
 Local
(UTC-5)
 Zulu
(UTC)
Morning civil twilight06:5411:54
Sunrise07:2412:24
Sunset17:0122:01
Evening civil twilight17:3122:31

Current date and time
Zulu (UTC)  23-Nov-2017 02:38:30
Local (UTC-5)  22-Nov-2017 21:38:30
 
METAR
KBKL 
14nm N 
230153Z 22006KT 10SM OVC039 00/M07 A3023 RMK AO2 SLP243 T00001067
KCLE 
14nm NW 
230151Z 22005KT 10SM OVC038 M01/M06 A3026 RMK AO2 SLP254 T10061061
KPOV 
16nm SE 
230213Z AUTO 23003KT 10SM OVC033 M01/M07 A3021 RMK AO2 T10151070
KCGF 
16nm N 
230145Z 00000KT 20SM OVC035 01/M06 A3023
KAKR 
18nm S 
230154Z AUTO 00000KT 10SM OVC034 00/M08 A3022 RMK AO2 SLP242 T00001078
KLNN 
23nm NE 
230215Z AUTO 32003KT 10SM OVC036 00/M06 A3022 RMK AO1 T00031062
KCAK 
25nm S 
230151Z 00000KT 10SM OVC033 M01/M08 A3022 RMK AO2 SLP245 BINOVC T10111083
TAF
KCLE 
14nm NW 
222008Z 2220/2324 31008KT P6SM OVC035 FM230000 26003KT P6SM BKN035 FM231200 21008KT P6SM BKN035 OVC100
NOTAMs
Click for the latest NOTAMs
NOTAMs are issued by the DoD/FAA and will open in a separate window not controlled by AirNav.

 

 
 

Would you like to see your business listed on this page?

 If your business provides an interesting product or service to pilots, flight crews, aircraft, or users of the Brentwood Ambulatory Care Center Heliport, you should consider listing it here.  To start the listing process, click on the button below
 
Add a business
 

Other Pages about Brentwood Ambulatory Care Center Heliport

Update a link
 
Copyright © AirNav, LLC. All rights reserved. Privacy Policy  Contact